This is the latest recevied weather packets stored in our database for station/object KQ4NAL. If no packets are shown the sender has not sent any weather packets the latest 10 day(s).
| Time | Temp. | Humidity | Pressure | Rain* | Wind** | Luminosity | Snow |
|---|---|---|---|---|---|---|---|
| 1778193074 | 16.11° C | 38% | 1015 hPa | 0 mm | - | 239 W/m² | - |
| 1778192771 | 16.11° C | 40% | 1015.1 hPa | 0 mm | - | 271 W/m² | - |
| 1778192468 | 16.11° C | 37% | 1015 hPa | 0 mm | - | 299 W/m² | - |
| 1778192164 | 16.67° C | 38% | 1014.8 hPa | 0 mm | - | 311 W/m² | - |
| 1778191861 | 16.11° C | 39% | 1015.2 hPa | 0 mm | - | 311 W/m² | - |
| 1778191558 | 17.22° C | 37% | 1015.3 hPa | 0 mm | - | 318 W/m² | - |
| 1778191255 | 16.67° C | 37% | 1015.4 hPa | 0 mm | - | 346 W/m² | - |
| 1778190951 | 17.22° C | 35% | 1015.3 hPa | 0 mm | - | 360 W/m² | - |
| 1778190650 | 16.67° C | 39% | 1015.2 hPa | 0 mm | - | 347 W/m² | - |
| 1778190346 | 16.11° C | 39% | 1015.2 hPa | 0 mm | - | 360 W/m² | - |
| 1778190042 | 16.67° C | 38% | 1015.4 hPa | 0 mm | - | 285 W/m² | - |
| 1778189739 | 17.22° C | 37% | 1015.2 hPa | 0 mm | - | 415 W/m² | - |
| 1778189436 | 17.22° C | 35% | 1015.2 hPa | 0 mm | - | 444 W/m² | - |
| 1778189132 | 17.22° C | 39% | 1015.2 hPa | 0 mm | - | 413 W/m² | - |
| 1778188829 | 16.11° C | 37% | 1015 hPa | 0 mm | - | 400 W/m² | - |
| 1778188526 | 16.11° C | 39% | 1015.1 hPa | 0 mm | - | 434 W/m² | - |
| 1778188222 | 16.67° C | 39% | 1015.2 hPa | 0 mm | - | 491 W/m² | - |
| 1778187919 | 16.67° C | 38% | 1015.2 hPa | 0 mm | - | 528 W/m² | - |
| 1778187616 | 16.11° C | 38% | 1015.1 hPa | 0 mm | - | 522 W/m² | - |
| 1778187313 | 16.67° C | 42% | 1015 hPa | 0 mm | - | 561 W/m² | - |
| 1778187008 | 16.11° C | 40% | 1015.1 hPa | 0 mm | - | 494 W/m² | - |
| 1778186705 | 16.67° C | 41% | 1015 hPa | 0 mm | - | 490 W/m² | - |
| 1778186403 | 17.22° C | 39% | 1015.2 hPa | 0 mm | - | 543 W/m² | - |
| 1778186101 | 16.11° C | 40% | 1015.1 hPa | 0 mm | - | 590 W/m² | - |
| 1778185797 | 15.56° C | 41% | 1015.2 hPa | 0 mm | - | 606 W/m² | - |
* Rain latest hour (hover to see other rain measurements)
** Current wind speed in m/s (hover to see current wind gust speed)